Andravida, Greece

9:15 PM EET on March 24, 2017 (GMT +0200)
Andravida Air Base

Weather History for LGAD - November, 2012

Change the Weather History Date:

Wednesday, November 14, 2012

  Actual Average Record
Temperature  
Mean Temperature 58 °F -  
Max Temperature 70 °F 61 °F 75 °F (2010)
Min Temperature 45 °F 45 °F 42 °F (2006)
Degree Days  
Heating Degree Days 8    
Growing Degree Days 8 (Base 50)    
Moisture  
Dew Point 49 °F    
Average Humidity 71    
Maximum Humidity 88    
Minimum Humidity 40    
Precipitation  
Precipitation 0.00 in - - ()
Sea Level Pressure  
Sea Level Pressure 30.12 in    
Wind  
Wind Speed 1 mph ()    
Max Wind Speed 5 mph    
Max Gust Speed -    
Visibility 6.0 miles    
Events      
Averages and records for this station are not official NWS values.
T = Trace of Precipitation, MM = Missing Value Source: Averaged Metar Reports

Daily Weather History Graph

Daily Weather History Graph

Search for Another Location

Airport or City:

Trip Planner

Search our weather history database for the weather conditions in past years. The results will help you decide how hot, cold, wet, or windy it might be!

Date:

Astronomy

Nov. 14, 2012 Rise Set
Actual Time 7:14 AM EET 5:23 PM EET
Civil Twilight 6:46 AM EET 5:51 PM EET
Nautical Twilight 6:14 AM EET 6:23 PM EET
Astronomical Twilight 5:43 AM EET 6:54 PM EET
Moon 7:41 AM EET (11/14) 5:55 PM EET (11/14)
Length of Visible Light 11h 05m
Length of Day
10h 09m
New Moon, 0% of the Moon is Illuminated
Nov 14
New Moon
Nov 20
First Quarter
Nov 28
Full
Dec 6
Last Quarter
Dec 13
New

Hourly Weather History & Observations

Time (EET) Temp. Windchill Dew Point Humidity Pressure Visibility Wind Dir Wind Speed Gust Speed Precip Events Conditions
1:20 AM 46.4 °F - 42.8 °F 87% 30.12 in - Calm Calm - N/A   Clear
2:00 AM 47 °F - 43 °F 82% 30.14 in 6 mi Calm Calm - -  
2:50 AM 46.4 °F - 42.8 °F 87% 30.12 in - Calm Calm - N/A   Clear
3:50 AM 48.2 °F - 44.6 °F 87% 30.12 in - Calm Calm - N/A   Clear
4:50 AM 44.6 °F - 41.0 °F 87% 30.09 in - Calm Calm - N/A   Clear
5:50 AM 46.4 °F - 42.8 °F 87% 30.09 in - Calm Calm - N/A   Clear
6:20 AM 48.2 °F - 42.8 °F 82% 30.09 in - Calm Calm - N/A   Clear
6:50 AM 48.2 °F - 42.8 °F 82% 30.12 in - SE 4.6 mph - N/A   Clear
7:20 AM 44.6 °F 42.2 °F 39.2 °F 81% 30.12 in - SE 4.6 mph - N/A   Clear
7:50 AM 48.2 °F - 41.0 °F 76% 30.12 in - Calm Calm - N/A   Clear
8:00 AM 47 °F - 40 °F 69% 30.14 in 6 mi Calm Calm - -  
8:20 AM 51.8 °F - 42.8 °F 71% 30.12 in - Calm Calm - N/A   Clear
8:50 AM 55.4 °F - 48.2 °F 77% 30.15 in - Calm Calm - N/A   Clear
9:20 AM 59.0 °F - 48.2 °F 67% 30.15 in - Calm Calm - N/A   Clear
9:50 AM 60.8 °F - 48.2 °F 63% 30.15 in - East 4.6 mph - N/A   Clear
10:20 AM 64.4 °F - 48.2 °F 56% 30.15 in - East 4.6 mph - N/A   Clear
10:50 AM 66.2 °F - 50.0 °F 56% 30.15 in - Calm Calm - N/A   Clear
11:20 AM 66.2 °F - 50.0 °F 56% 30.15 in - Calm Calm - N/A   Clear
11:50 AM 68.0 °F - 51.8 °F 56% 30.15 in - Calm Calm - N/A   Clear
12:20 PM 69.8 °F - 50.0 °F 49% 30.12 in - Calm Calm - N/A   Clear
12:50 PM 69.8 °F - 48.2 °F 46% 30.12 in - Calm Calm - N/A   Clear
1:20 PM 69.8 °F - 48.2 °F 46% 30.12 in - Calm Calm - N/A   Clear
1:50 PM 69.8 °F - 51.8 °F 53% 30.12 in - Calm Calm - N/A   Clear
2:00 PM 70 °F - 51 °F 40% 30.13 in 6 mi Calm Calm - -  
2:20 PM 69.8 °F - 51.8 °F 53% 30.12 in - Calm Calm - N/A   Clear
2:50 PM 69.8 °F - 51.8 °F 53% 30.09 in - Calm Calm - N/A   Clear
3:20 PM 71.6 °F - 51.8 °F 50% 30.09 in - Calm Calm - N/A   Clear
3:50 PM 68.0 °F - 55.4 °F 64% 30.09 in - North 4.6 mph - N/A   Clear
4:20 PM 68.0 °F - 55.4 °F 64% 30.09 in - North 4.6 mph - N/A   Clear
4:50 PM 64.4 °F - 55.4 °F 73% 30.09 in - North 4.6 mph - N/A   Clear
5:20 PM 64.4 °F - 55.4 °F 73% 30.09 in - North 4.6 mph - N/A   Clear
5:50 PM 60.8 °F - 53.6 °F 77% 30.12 in - Calm Calm - N/A   Clear
6:20 PM 60.8 °F - 53.6 °F 77% 30.12 in - Calm Calm - N/A   Clear
6:50 PM 55.4 °F - 50.0 °F 82% 30.12 in - Calm Calm - N/A   Clear
7:20 PM 55.4 °F - 50.0 °F 82% 30.12 in - Calm Calm - N/A   Clear
7:50 PM 55.4 °F - 51.8 °F 88% 30.12 in - Calm Calm - N/A   Clear
8:00 PM 55 °F - 51 °F 83% 30.14 in 6 mi Calm Calm - -  
8:20 PM 55.4 °F - 51.8 °F 88% 30.12 in - Calm Calm - N/A   Clear
8:50 PM 55.4 °F - 51.8 °F 88% 30.12 in - Calm Calm - N/A   Clear
9:20 PM 55.4 °F - 51.8 °F 88% 30.12 in - Calm Calm - N/A   Clear
9:50 PM 55.4 °F - 51.8 °F 88% 30.12 in - Calm Calm - N/A   Clear
10:50 PM 55.4 °F - 50.0 °F 82% 30.12 in - Calm Calm - N/A   Clear